ARCCUBE 1 (RS25S)

Last updated on Wed Jul 02 2025 00:03:06 GMT+0000 (Coordinated Universal Time)

1 57205U 23091AR 25182.58924613 .00038301 00000+0 75207-3 0 9998 2 57205 97.5445 249.1233 0005827 198.3613 161.7427 15.47207127111571
UTC large
Height (km)
Speed (km/s)
/
Latitude / Longitude
Inclination (degrees)
Orbital Period (minutes)
Azimuth
Elevation
Range (km)
Doppler Factor

Next 0 passes for location: London (51.5072 / 0.1276)

Sorry there are no passes over London.